Regional Weather Roundup
Issued by NWS Albany, NY

Current Version | Previous Version | Text Only | Print | Product List | Glossary On
Versions: 1 2 3 4 5 6 7 8 9 10 11 12 13 14 15 16 17 18 19 20 21 22 23 24 25 26 27 28
000 ASUS41 KALY 211210 RWRALY NEW YORK STATE HOURLY WEATHER ROUNDUP NATIONAL WEATHER SERVICE ALBANY NY 700 AM EST TUE NOV 21 2017 NOTE: "FAIR" INDICATES FEW OR NO CLOUDS BELOW 12,000 FEET WITH NO SIGNIFICANT WEATHER AND/OR NO OBSTRUCTIONS TO VISIBILITY. NYZ032-033-038>043-046>054-057>066-NYZ062>081-082-084-211300- EAST CITY SKY/WX TMP DP RH WIND PRES REMARKS ALBANY PTCLDY 34 22 61 S5 30.03S WCI 30 GLENS FALLS CLEAR 22 21 96 CALM 30.01F POUGHKEEPSIE CLEAR 26 22 84 CALM 30.09S NEWBURGH CLEAR 30 25 80 CALM 30.09S MONTGOMERY CLEAR 23 21 92 CALM 30.08S WHITE PLAINS CLEAR 39 28 64 CALM 30.11S ISLIP PTCLDY 42 33 70 SW3 30.14R NEW YORK CITY PTCLDY 44 29 55 SW8 30.13R CENTRAL PARK CLEAR 43 29 57 MISG 30.15S $$ NYZ005>009-017-018-044>046-055-056-211300- CENTRAL CITY SKY/WX TMP DP RH WIND PRES REMARKS FULTON CLEAR 39 23 52 S12 29.86S WCI 32 SYRACUSE PTCLDY 38 21 50 S8 29.88F WCI 32 ROME CLEAR 34 23 64 E10 29.95S WCI 26 ELMIRA CLEAR 28 23 81 E3 29.93F BINGHAMTON CLEAR 34 20 56 S7 29.93F WCI 28 MONTICELLO CLEAR 23 21 92 SE3 30.04 $$ NYZ026>034-041>043-087-211300- NORTH CITY SKY/WX TMP DP RH WIND PRES REMARKS WATERTOWN CLEAR 40 25 55 SW9G17 29.82R WCI 34 FORT DRUM NOT AVBL OGDENSBURG FAIR 37 28 72 S12G17 29.77F WCI 29 MASSENA PTCLDY 20 19 96 CALM 29.80F SARANAC LAKE CLEAR 29 25 85 SW9 29.82F WCI 20 PLATTSBURGH CLEAR 23 21 92 CALM 29.90F $$ NYZ001>004-010>016-019>021-085-211300- WEST CITY SKY/WX TMP DP RH WIND PRES REMARKS NIAGARA FALLS CLEAR 45 26 47 SW16G26 29.76F BUFFALO PTCLDY 41 22 46 S20 29.78F DUNKIRK CLEAR 41 22 46 S21G32 29.81F JAMESTOWN CLEAR 35 20 54 S16 29.85 WCI 25 WELLSVILLE CLEAR 41 18 39 S9 29.89S ROCHESTER PTCLDY 41 23 48 SW17G28 29.81F PENN YAN CLEAR 40 22 48 S17G24 29.86F WCI 31 $$ KEY WCI = WIND CHILL INDEX VSB = VISIBILITY HX = HEAT INDEX $$

USA.gov is the U.S. government's official web portal to all federal, state and local government web resources and services.